Regional Weather Roundup
Issued by NWS

Home | Current Version | Previous Version | Graphics & Text | Print | Product List | Glossary On
Versions: 1 2 3 4 5 6 7 8 9 10 11 12 13 14 15 16 17 18 19 20 21 22 23 24 25 26 27 28 29 30 31 32 33 34 35 36 37 38 39 40 41 42 43 44 45 46 47 48 49 50
000
ASUS45 KCYS 160410
RWRWY

WYOMING REGIONAL WEATHER ROUNDUP
NATIONAL WEATHER SERVICE CHEYENNE WY
1000 PM MDT MON SEP 15 2014

NOTE:  "FAIR" INDICATES FEW OR NO CLOUDS BELOW 12,000 FEET
WITH NO SIGNIFICANT WEATHER AND/OR OBSTRUCTIONS TO VISIBILITY.

WYZ001-160500-
YELLOWSTONE NATIONAL PARK

CITY           SKY/WX    TMP DP  RH WIND       PRES   REMARKS
LK YELLOWSTONE   N/A     42  32  67 NW6       30.35R
W YELLOWSTONE  NOT AVBL

$$
WYZ002>013-054>058-071-098>099-160500-
NORTHERN WYOMING

CITY           SKY/WX    TMP DP  RH WIND       PRES   REMARKS
JACKSON        CLEAR     52  28  40 N3        30.25R
CODY           PTCLDY    57  45  62 SW5       30.16R
GREYBULL       CLEAR     61  41  47 CALM      30.07R
WORLAND        CLEAR     56  45  66 CALM      30.09R
SHERIDAN       CLEAR     49  44  83 CALM      30.09S
BUFFALO        CLEAR     54  43  66 W6        30.15F
GILLETTE       CLEAR     54  44  69 S9        30.11S
HULETT         FAIR      55  41  58 MISG      30.12
NEWCASTLE      FAIR      59  39  47 E10       30.14

$$
WYZ014>020-022>026-101>103-160500-
CENTRAL WYOMING

CITY           SKY/WX    TMP DP  RH WIND       PRES   REMARKS
BIG PINEY      CLEAR     52  27  38 N12       30.30R
PINEDALE       CLEAR     48  30  49 NW5       30.30R
DUBOIS         FAIR      52  28  40 NW9       30.28S
LANDER         CLEAR     64  36  35 W5        30.15R
RIVERTON       PTCLDY    61  39  44 NW9       30.15R
CASPER         CLEAR     53  40  61 NW3       30.13R
DOUGLAS        PTCLDY    58  44  60 SE13      30.13F

$$
WYZ021-027>030-104>119-160500-
SOUTHERN WYOMING

CITY           SKY/WX    TMP DP  RH WIND       PRES   REMARKS
EVANSTON       CLEAR     61  32  33 E7        30.30R
KEMMERER       CLEAR    N/A N/A N/A N8        30.32R
FORT BRIDGER   FAIR      63  30  29 W7        30.32S
ROCK SPRINGS   CLEAR     63  35  35 W9        30.27R
DIXON          FAIR      58  38  48 NE3       30.29S
RAWLINS        PTCLDY    63  33  32 W10       30.25S
SARATOGA       FAIR      54  36  50 S6        30.29S
LARAMIE        PTCLDY    51  42  71 S12       30.30S
CHEYENNE       PTCLDY    54  45  71 SW10      30.27F
TORRINGTON     PTCLDY    59  47  64 E13       30.14S
PINE BLUFFS    FAIR      52  48  87 S6        30.23F

$$



USA.gov is the U.S. government's official web portal to all federal, state and local government web resources and services.